This is the latest recevied weather packets stored in our database for station/object KB1RMA-4. If no packets are shown the sender has not sent any weather packets the latest 1 day(s).
| Time | Temp. | Humidity | Pressure | Rain* | Wind** | Luminosity | Snow |
|---|---|---|---|---|---|---|---|
| 1777979642 | 14.44° C | 62% | 1009.7 hPa | 0 mm | 0.45 m/s, 190° | 60 W/m² | - |
| 1777979327 | 13.89° C | 63% | 1009.7 hPa | 0 mm | 0 m/s | 58 W/m² | - |
| 1777979025 | 13.89° C | 64% | 1009.6 hPa | 0 mm | 0 m/s | 55 W/m² | - |
| 1777978721 | 13.33° C | 64% | 1009.6 hPa | 0 mm | 0.45 m/s, 224° | 51 W/m² | - |
| 1777978418 | 13.33° C | 65% | 1009.6 hPa | 0 mm | 0 m/s | 48 W/m² | - |
| 1777978114 | 13.33° C | 65% | 1009.5 hPa | 0 mm | 0 m/s | 46 W/m² | - |
| 1777977812 | 12.78° C | 65% | 1009.7 hPa | 0 mm | 0.45 m/s, 263° | 43 W/m² | - |
| 1777977507 | 12.78° C | 66% | 1009.7 hPa | 0 mm | 0 m/s | 39 W/m² | - |
| 1777977206 | 12.22° C | 67% | 1009.8 hPa | 0 mm | 0 m/s | 35 W/m² | - |
| 1777976903 | 12.22° C | 67% | 1009.9 hPa | 0 mm | 0 m/s | 32 W/m² | - |
| 1777976600 | 12.22° C | 67% | 1009.8 hPa | 0 mm | 0 m/s | 31 W/m² | - |
| 1777976295 | 11.67° C | 67% | 1009.9 hPa | 0 mm | 0 m/s | 26 W/m² | - |
| 1777975990 | 11.67° C | 67% | 1009.9 hPa | 0 mm | 0 m/s | 21 W/m² | - |
| 1777975686 | 11.67° C | 68% | 1009.7 hPa | 0 mm | 0 m/s | 18 W/m² | - |
| 1777975383 | 11.67° C | 68% | 1009.6 hPa | 0 mm | 0 m/s | 16 W/m² | - |
| 1777975079 | 11.67° C | 67% | 1009.7 hPa | 0 mm | 0 m/s | 12 W/m² | - |
| 1777974777 | 11.67° C | 67% | 1009.7 hPa | 0 mm | 0 m/s | 8 W/m² | - |
| 1777974472 | 11.67° C | 68% | 1009.7 hPa | 0 mm | 0 m/s | 6 W/m² | - |
| 1777974169 | 11.11° C | 68% | 1009.7 hPa | 0 mm | 0 m/s | 5 W/m² | - |
| 1777973865 | 11.67° C | 68% | 1009.8 hPa | 0 mm | 0 m/s | 3 W/m² | - |
| 1777973563 | 11.11° C | 68% | 1009.7 hPa | 0 mm | 0 m/s | 1 W/m² | - |
| 1777973259 | 11.67° C | 67% | 1009.7 hPa | 0 mm | 0 m/s | 0 W/m² | - |
| 1777972958 | 11.67° C | 67% | 1009.7 hPa | 0 mm | 0 m/s | 0 W/m² | - |
| 1777972655 | 11.67° C | 66% | 1009.8 hPa | 0 mm | 0 m/s | 0 W/m² | - |
| 1777972353 | 11.67° C | 66% | 1009.8 hPa | 0 mm | 0 m/s | 0 W/m² | - |
* Rain latest hour (hover to see other rain measurements)
** Current wind speed in m/s (hover to see current wind gust speed)